SCP
0 0 0 0 0 0 0 0 0 0 0 0 0 0 0 0 0 0 0 0 0 0 0 0 0 0 0 0 0 0 0 0 0 0 0 0 0 0 0 0 0 0 0 0
0 0 0 0 0 0 0 0 0 0 0 0 0 0 0 0 0 0 0 0 0 0 0 0 0 0 0 0 0 0 0 0 0 0 0 0 0 0 0 0 0 0 0 0
0 0 0 0 0 0 0 0 0 0 0 0 0 0 0 0 0 0 0 0 0 0 0 0 0 0 0 0 0 0 0 0 0 0 0 0 0 0 0 0 0 0 0 0
0 0 0 0 0 0 0 0 0 0 0 0 0 0 0 0 0 0 0 0 0 0 0 0 0 0 0 0 0 0 0 0 0 0 0 0 0 0 0 0 0 0 0 0
0 0 0 0 0 0 0 0 0 0 0 0 0 0 0 0 0 0 0 0 0 0 0 0 0 0 0 0 0 0 0 0 0 0 0 0 0 0 0 0 0 0 0 0
0 0 0 0 0 0 0 0 0 0 0 0 0 0 0 0 0 0 0 0 0 0 0 0 0 0 0 0 0 0 0 0 0 0 0 0 0 0 0 0 0 0 0 0
0 0 0 0 0 0 0 0 0 0 0 0 0 0 0 0 0 0 0 0 0 0 0 0 0 0 0 0 0 0 0 0 0 0 0 0 0 0 0 0 0 0 0 0
0 0 0 0 0 0 0 0 0 0 0 0 0 0 0 0 0 0 0 0 0 0 0 0 0 0 0 0 0 0 0 0 0 0 0 0 0 0 0 0 0 0 0 0
0 0 0 0 0 0 0 0 0 0 0 0 0 0 0 0 0 0 0 0 0 0 0 0 0 0 0 0 0 0 0 0 0 0 0 0 0 0 0 0 0 0 0 0
0 0 0 0 0 0 0 0 0 0 0 0 0 0 0 0 0 0 0 0 0 0 0 0 0 0 0 0 0 0 0 0 0 0 0 0 0 0 0 0 0 0 0 0
0 0 0 0 0 0 0 0 0 0 0 0 0 0 0 0 0 0 0 0 0 0 0 0 0 0 0 0 0 0 0 0 0 0 0 0 0 0 0 0 0 0 0 0
0 0 0 0 -0 0 0 0 0 0 0 0 0 0 0 0 0 0 0 0 0 0 0 0 0 0 0 0 0 0 0 0 0 0 0 0 0 0 0 0 0 0 0 0
0 0 0 0 0 0 0 0 0 0 0 0 0 0 0 0 0 0 0 0 0 0 0 0 0 0 0 0 0 0 0 0 0 0 0 0 0 0 0 0 0 0 0 0
0 0 0 0 0 0 0 0 0 0 0 0 0 0 0 0 0 0 0 0 0 0 0 0 0 0 0 0 0 0 0 0 0 0 0 0 0 0 0 0 0 0 0 0
0 0 0 0 0 0 0 0 0 0 0 0 0 0 0 0 0 0 0 0 0 0 0 0 0 0 0 0 0 0 0 0 0 0 0 0 0 0 0 0 0 0 0 0
0 0 0 0 0 0 0 0 0 0 0 0 0 0 0 0 0 0 0 0 0 0 0 0 0 0 0 0 0 0 0 0 0 0 0 0 0 0 0 0 0 0 0 0
0 0 0 0 0 0 0 0 0 0 0 0 0 0 0 0 0 0 0 0 0 0 0 0 0 0 0 0 0 0 0 0 0 0 0 0 0 0 0 0 0 0 0 0
0 0 0 0 0 0 0 0 0 0 0 0 0 0 0 0 0 0 0 0 0 0 0 0 0 0 0 0 0 0 0 0 0 0 0 0 0 0 0 0 0 0 0 0
0 0 0 0 0 0 0 0 0 0 0 0 0 0 0 0 0 0 0 0 0 0 0 0 0 0 0 0 0 0 0 0 0 0 0 0 0 0 0 0 0 0 0 0
0 0 0 0 0 0 0 0 0 0 0 0 0 0 0 0 0 0 0 0 0 0 0 0 0 0 0 0 0 0 0 0 0 0 0 0 0 0 0 0 0 0 0 0
0 0 0 0 0 0 0 0 0 0 0 0 0 0 0 0 0 0 0 0 0 0 0 0 0 0 0 0 0 0 0 0 0 0 0 0 0 0 0 0 0 0 0 0
0 0 0 0 0 0 0 0 0 0 0 0 0 0 0 0 0 0 0 0 0 0 0 0 0 0 0 0 0 0 0 0 0 0 0 0 0 0 0 0 0 0 0 0
0 0 0 0 0 0 0 0 0 0 0 0 0 0 0 0 0 0 0 0 0 0 0 0 0 0 0 0 0 0 0 0 0 0 0 0 0 0 0 0 0 0 0 0
0 0 0 0 0 0 0 0 0 0 0 0 0 0 0 0 0 0 0 0 0 0 0 0 0 0 0 0 0 0 0 0 0 0 0 0 0 0 0 0 0 0 0 0
0 0 0 0 0 0 0 0 0 0 0 0 0 0 0 0 0 0 0 0 0 0 0 0 0 0 0 0 0 0 0 0 0 0 0 0 0 0 0 0 0 0 0 0
0 0 0 0 0 0 0 0 0 0 0 0 0 0 0 0 0 0 0 0 0 0 0 0 0 0 0 0 0 0 0 0 0 0 0 -0 -0 0 0 0 0 0 0 0
0 0 0 0 0 0 0 0 0 0 0 0 0 0 0 0 0 0 0 0 0 0 0 0 0 0 0 0 0 0 0 0 0 0 0 0 -0 0 0 0 0 0 0 0
Wind_Speed_500mb
3 5 11 12 18 25 27 25 18 18 25 18 24 24 47 53 54 55 54 52 48 44 52 54 55 53 47 44 44 42 40 37 33 32 31 30 31 34 38 43 48 50 52 56
10 0 3 6 20 21 24 21 28 8 19 14 33 26 27 39 54 57 56 47 37 36 33 36 45 55 51 46 46 48 46 41 42 43 40 37 36 37 41 47 53 55 57 59
13 8 8 10 19 22 10 10 22 22 24 10 10 18 34 38 48 66 60 37 29 27 28 35 44 47 50 43 43 48 50 53 55 52 49 44 40 41 47 54 58 59 61 62
7 7 15 5 1 10 20 10 7 4 8 25 17 38 32 32 37 40 36 29 28 30 35 39 39 39 38 41 45 51 57 60 60 57 53 48 43 46 52 58 60 60 62 62
9 10 11 7 10 14 16 16 18 18 10 20 19 17 17 31 28 25 24 24 28 32 36 32 31 33 38 42 46 48 49 56 58 57 55 52 49 50 53 59 63 62 62 62
7 10 19 3 2 11 9 8 16 35 16 24 32 5 8 26 26 19 20 22 28 33 35 33 29 31 38 43 45 49 49 49 52 56 58 57 54 53 54 62 65 64 64 62
10 8 9 10 14 21 11 10 18 42 26 45 10 17 21 20 15 11 12 17 28 38 38 31 28 36 42 44 49 44 46 52 57 60 61 60 57 55 57 62 67 65 66 62
5 5 15 24 13 17 10 18 30 30 30 32 29 25 19 15 14 16 20 26 37 43 45 34 36 44 50 50 46 46 48 55 61 64 62 61 58 57 59 63 66 66 66 62
14 10 1 55 8 23 35 33 29 29 30 29 33 36 30 22 19 26 31 33 37 53 48 35 39 47 55 57 55 56 54 57 61 62 61 60 60 59 60 63 65 65 64 63
6 6 7 44 14 35 28 26 28 24 27 35 42 41 35 28 25 25 27 29 31 49 59 49 47 52 56 61 61 61 58 58 60 59 59 59 59 59 62 61 60 63 61 60
3 4 4 18 54 30 32 29 28 29 28 30 32 39 40 42 32 30 32 30 35 39 56 64 52 54 55 58 60 59 56 57 57 56 56 56 57 59 63 58 57 58 56 56
8 30 18 19 41 42 42 43 38 31 29 28 30 34 35 40 39 38 36 35 39 42 44 49 51 48 50 53 54 56 58 57 55 55 56 58 60 61 55 54 53 55 51 49
12 27 31 15 19 32 43 37 34 37 37 35 38 39 39 44 37 34 36 37 40 39 41 43 45 48 49 50 51 52 53 56 56 58 58 59 61 61 56 47 52 50 48 48
21 21 28 36 34 30 33 35 34 38 40 40 41 41 42 41 42 43 42 41 40 40 40 40 38 37 39 42 46 50 53 55 56 57 60 62 60 57 56 57 54 43 41 46
45 43 47 47 41 38 32 30 34 41 45 44 46 45 43 44 44 44 41 39 35 31 28 27 26 31 37 41 44 48 53 55 56 59 61 60 57 57 57 55 53 50 40 35
44 46 49 55 50 46 44 42 42 46 49 49 46 47 47 48 47 43 39 34 27 24 24 26 29 35 39 43 47 51 53 55 58 59 60 59 58 59 57 53 51 47 44 36
47 47 48 47 47 46 46 42 39 41 48 49 46 50 50 47 43 39 33 28 25 24 27 28 30 35 40 44 47 49 52 54 58 61 61 58 58 58 55 52 49 45 42 37
53 56 55 53 53 51 42 37 38 44 47 47 47 47 45 42 38 33 27 23 22 25 27 29 30 32 37 43 49 53 56 58 60 63 61 60 57 55 53 52 47 45 40 36
52 57 55 49 47 48 46 39 38 40 43 41 39 39 36 34 29 24 21 21 20 20 23 28 33 39 43 47 52 55 58 58 57 56 54 54 54 52 51 49 46 43 40 37
32 30 29 29 27 26 25 25 27 29 29 29 30 30 28 25 21 17 16 17 17 19 23 28 32 36 39 42 45 49 50 49 49 48 48 50 50 48 46 45 43 41 38 37
13 13 14 15 14 13 15 15 17 20 23 25 22 20 17 15 13 9 11 15 17 19 22 24 26 28 31 34 36 38 38 37 36 37 38 40 41 40 40 39 40 41 41 41
1 3 5 6 7 10 13 15 17 20 21 20 19 16 13 8 6 6 9 12 14 15 18 19 20 22 24 27 28 29 29 30 30 31 32 34 35 37 38 39 40 40 40 41
6 4 3 7 9 12 17 19 19 18 18 17 14 11 8 5 5 7 7 13 12 13 14 15 17 20 22 23 24 25 26 28 28 30 33 34 34 34 35 35 36 37 38 38
8 9 9 13 16 19 19 21 20 17 13 10 8 4 2 4 5 7 8 10 11 13 15 17 19 22 21 23 25 26 28 30 31 32 32 32 32 32 33 33 34 34 34 37
11 13 15 16 16 21 21 19 14 10 8 6 5 5 5 5 5 5 7 9 11 14 16 19 20 21 23 24 25 26 27 29 29 30 29 30 30 30 31 31 33 35 37 37
16 17 18 18 15 16 16 14 12 9 6 6 4 3 3 4 5 7 9 11 13 15 16 18 19 20 22 24 25 27 28 29 30 30 31 31 32 33 34 35 36 37 37 37
12 13 12 11 11 10 9 7 6 6 6 5 4 3 4 5 7 8 9 11 12 14 16 17 19 22 24 25 26 28 28 29 30 30 30 31 31 32 33 34 34 35 35 36
Wind_Direction_500mb
212 242 160 174 172 183 202 208 201 228 228 196 196 196 199 202 203 199 204 206 210 227 237 238 236 236 235 230 227 228 232 241 251 262 273 284 299 307 313 314 315 314 315 316
196 174 314 203 221 191 201 215 234 213 248 182 210 198 190 209 204 200 205 208 236 236 235 240 243 242 237 234 231 231 237 248 255 262 269 276 286 296 307 313 313 312 314 316
205 158 134 268 219 190 176 195 193 212 232 161 181 186 194 198 204 213 217 240 238 233 243 247 249 245 235 234 233 237 244 248 254 260 265 267 278 294 302 307 309 309 312 313
134 156 218 216 189 197 199 197 187 93 191 183 196 210 221 231 226 226 236 230 232 247 246 243 243 234 230 230 236 242 247 252 256 260 263 265 277 290 295 303 305 305 308 311
157 216 332 146 204 147 165 245 191 210 195 177 153 151 214 212 207 210 216 238 247 242 237 229 225 226 229 236 242 249 258 262 261 262 262 262 272 281 292 302 302 301 306 310
157 187 205 248 192 152 110 280 210 197 192 157 147 145 241 201 190 210 227 237 241 231 227 224 220 231 242 248 251 265 268 271 267 261 260 261 268 278 290 301 299 300 305 309
179 205 272 216 179 150 136 249 180 203 193 160 178 199 149 168 189 218 246 262 246 229 232 224 246 252 252 256 263 264 266 266 264 261 259 262 268 277 292 299 297 298 302 305
112 170 249 150 115 168 165 140 175 182 192 197 212 183 188 211 236 245 253 261 249 237 230 243 256 258 257 263 265 262 266 266 261 258 259 264 271 278 290 293 295 295 298 302
192 207 149 172 130 163 154 161 168 170 183 201 206 207 218 223 246 249 252 259 256 241 229 249 260 261 258 263 265 262 265 266 261 259 261 267 274 280 288 292 293 293 298 302
104 197 200 196 159 181 172 169 181 196 208 212 214 217 221 240 276 260 267 274 270 246 234 249 261 267 268 265 265 260 260 262 260 259 263 269 275 281 288 290 289 291 294 298
9 351 204 223 214 197 197 206 213 217 222 225 233 235 248 262 265 272 277 269 265 260 246 250 269 270 266 266 265 261 261 263 262 263 267 272 277 282 287 288 285 288 291 294
200 198 178 202 210 210 218 231 236 231 229 238 245 257 259 264 268 274 273 267 257 251 256 263 263 260 262 264 264 260 262 266 266 268 272 276 279 283 283 282 283 287 291 291
178 179 195 213 214 224 236 247 246 239 246 252 256 257 255 261 262 263 268 269 264 264 268 260 263 265 263 263 260 261 267 268 268 270 274 278 282 283 283 276 281 283 285 287
202 209 212 232 243 251 251 254 253 246 250 250 254 251 253 252 261 266 268 266 265 264 260 259 261 262 262 260 261 263 265 267 272 278 280 280 281 279 279 280 281 276 280 282
233 240 257 265 264 258 258 256 250 252 246 255 256 250 248 255 260 261 263 263 261 259 259 258 258 260 262 263 264 266 269 271 273 273 273 275 275 276 276 277 280 285 282 277
257 251 251 249 263 266 262 261 258 260 262 263 254 248 247 250 252 252 249 246 246 250 256 264 264 266 269 272 274 274 275 276 275 273 272 271 272 272 272 274 275 279 282 281
246 249 247 249 260 274 273 272 268 269 271 264 253 243 242 242 240 237 234 234 243 256 266 268 271 275 279 281 282 280 279 276 274 273 271 272 269 268 269 269 272 274 276 274
270 273 276 283 286 285 279 273 269 262 259 256 249 240 236 234 231 226 229 240 253 265 273 281 285 288 289 287 287 286 284 282 278 276 274 270 269 266 266 267 268 270 270 268
268 270 275 276 273 272 273 267 256 250 249 246 238 229 223 219 220 223 230 242 251 265 279 287 293 295 295 294 293 290 288 284 280 277 274 270 267 265 264 263 264 264 266 267
272 272 269 264 257 256 254 246 237 230 223 219 214 207 204 205 213 221 232 252 270 282 288 292 295 299 303 305 304 303 299 294 286 279 275 273 270 267 262 261 261 262 265 269
270 268 263 254 245 234 224 215 207 198 190 184 184 188 190 198 205 216 251 274 283 290 297 302 308 312 315 320 321 319 314 308 300 292 284 280 274 268 262 260 261 264 268 271
322 243 237 225 216 198 179 172 170 170 172 173 171 167 169 187 225 262 289 290 297 302 303 309 318 324 330 332 329 325 319 314 308 300 293 288 280 274 269 267 267 268 271 274
56 74 128 159 163 161 156 155 155 156 159 160 162 168 176 193 255 294 289 285 293 299 304 316 322 322 330 327 322 323 319 314 309 303 300 296 288 282 279 276 275 274 275 276
85 113 134 142 147 146 149 144 143 145 148 149 146 157 210 241 251 274 282 285 294 305 314 316 317 318 325 321 320 318 315 310 306 303 300 297 293 289 285 283 281 280 279 279
102 119 130 135 144 139 138 139 141 147 158 168 180 208 247 271 281 270 276 294 305 311 314 315 317 318 322 320 322 320 318 314 310 307 305 301 297 294 290 287 287 285 283 284
115 126 134 139 145 141 140 145 153 160 176 193 197 217 243 270 284 296 314 320 322 324 323 325 327 329 328 323 324 322 321 319 315 311 307 304 300 297 295 292 289 288 288 289
123 128 129 136 140 139 140 148 156 174 191 199 212 246 281 307 317 318 320 328 333 332 332 334 336 335 331 328 328 324 324 322 317 314 310 307 305 303 300 296 295 294 293 292
Wind_Speed_850mb
3 5 11 12 18 25 27 25 18 18 25 18 24 24 47 53 54 55 54 52 48 44 52 54 55 53 47 44 44 42 40 37 33 32 31 30 31 34 38 43 48 50 52 56
10 0 3 6 20 21 24 21 28 8 19 14 33 26 27 39 54 57 56 47 37 36 33 36 45 55 51 46 46 48 46 41 42 43 40 37 36 37 41 47 53 55 57 59
13 8 8 10 19 22 10 10 22 22 24 10 10 18 34 38 48 66 60 37 29 27 28 35 44 47 50 43 43 48 50 53 55 52 49 44 40 41 47 54 58 59 61 62
7 7 15 5 1 10 20 10 7 4 8 25 17 38 32 32 37 40 36 29 28 30 35 39 39 39 38 41 45 51 57 60 60 57 53 48 43 46 52 58 60 60 62 62
9 10 11 7 10 14 16 16 18 18 10 20 19 17 17 31 28 25 24 24 28 32 36 32 31 33 38 42 46 48 49 56 58 57 55 52 49 50 53 59 63 62 62 62
7 10 19 3 2 11 9 8 16 35 16 24 32 5 8 26 26 19 20 22 28 33 35 33 29 31 38 43 45 49 49 49 52 56 58 57 54 53 54 62 65 64 64 62
10 8 9 10 14 21 11 10 18 42 26 45 10 17 21 20 15 11 12 17 28 38 38 31 28 36 42 44 49 44 46 52 57 60 61 60 57 55 57 62 67 65 66 62
5 5 15 24 13 17 10 18 30 30 30 32 29 25 19 15 14 16 20 26 37 43 45 34 36 44 50 50 46 46 48 55 61 64 62 61 58 57 59 63 66 66 66 62
14 10 1 55 8 23 35 33 29 29 30 29 33 36 30 22 19 26 31 33 37 53 48 35 39 47 55 57 55 56 54 57 61 62 61 60 60 59 60 63 65 65 64 63
6 6 7 44 14 35 28 26 28 24 27 35 42 41 35 28 25 25 27 29 31 49 59 49 47 52 56 61 61 61 58 58 60 59 59 59 59 59 62 61 60 63 61 60
3 4 4 18 54 30 32 29 28 29 28 30 32 39 40 42 32 30 32 30 35 39 56 64 52 54 55 58 60 59 56 57 57 56 56 56 57 59 63 58 57 58 56 56
8 30 18 19 41 42 42 43 38 31 29 28 30 34 35 40 39 38 36 35 39 42 44 49 51 48 50 53 54 56 58 57 55 55 56 58 60 61 55 54 53 55 51 49
12 27 31 15 19 32 43 37 34 37 37 35 38 39 39 44 37 34 36 37 40 39 41 43 45 48 49 50 51 52 53 56 56 58 58 59 61 61 56 47 52 50 48 48
21 21 28 36 34 30 33 35 34 38 40 40 41 41 42 41 42 43 42 41 40 40 40 40 38 37 39 42 46 50 53 55 56 57 60 62 60 57 56 57 54 43 41 46
45 43 47 47 41 38 32 30 34 41 45 44 46 45 43 44 44 44 41 39 35 31 28 27 26 31 37 41 44 48 53 55 56 59 61 60 57 57 57 55 53 50 40 35
44 46 49 55 50 46 44 42 42 46 49 49 46 47 47 48 47 43 39 34 27 24 24 26 29 35 39 43 47 51 53 55 58 59 60 59 58 59 57 53 51 47 44 36
47 47 48 47 47 46 46 42 39 41 48 49 46 50 50 47 43 39 33 28 25 24 27 28 30 35 40 44 47 49 52 54 58 61 61 58 58 58 55 52 49 45 42 37
53 56 55 53 53 51 42 37 38 44 47 47 47 47 45 42 38 33 27 23 22 25 27 29 30 32 37 43 49 53 56 58 60 63 61 60 57 55 53 52 47 45 40 36
52 57 55 49 47 48 46 39 38 40 43 41 39 39 36 34 29 24 21 21 20 20 23 28 33 39 43 47 52 55 58 58 57 56 54 54 54 52 51 49 46 43 40 37
32 30 29 29 27 26 25 25 27 29 29 29 30 30 28 25 21 17 16 17 17 19 23 28 32 36 39 42 45 49 50 49 49 48 48 50 50 48 46 45 43 41 38 37
13 13 14 15 14 13 15 15 17 20 23 25 22 20 17 15 13 9 11 15 17 19 22 24 26 28 31 34 36 38 38 37 36 37 38 40 41 40 40 39 40 41 41 41
1 3 5 6 7 10 13 15 17 20 21 20 19 16 13 8 6 6 9 12 14 15 18 19 20 22 24 27 28 29 29 30 30 31 32 34 35 37 38 39 40 40 40 41
6 4 3 7 9 12 17 19 19 18 18 17 14 11 8 5 5 7 7 13 12 13 14 15 17 20 22 23 24 25 26 28 28 30 33 34 34 34 35 35 36 37 38 38
8 9 9 13 16 19 19 21 20 17 13 10 8 4 2 4 5 7 8 10 11 13 15 17 19 22 21 23 25 26 28 30 31 32 32 32 32 32 33 33 34 34 34 37
11 13 15 16 16 21 21 19 14 10 8 6 5 5 5 5 5 5 7 9 11 14 16 19 20 21 23 24 25 26 27 29 29 30 29 30 30 30 31 31 33 35 37 37
16 17 18 18 15 16 16 14 12 9 6 6 4 3 3 4 5 7 9 11 13 15 16 18 19 20 22 24 25 27 28 29 30 30 31 31 32 33 34 35 36 37 37 37
12 13 12 11 11 10 9 7 6 6 6 5 4 3 4 5 7 8 9 11 12 14 16 17 19 22 24 25 26 28 28 29 30 30 30 31 31 32 33 34 34 35 35 36
Wind_Direction_850mb
212 242 160 174 172 183 202 208 201 228 228 196 196 196 199 202 203 199 204 206 210 227 237 238 236 236 235 230 227 228 232 241 251 262 273 284 299 307 313 314 315 314 315 316
196 174 314 203 221 191 201 215 234 213 248 182 210 198 190 209 204 200 205 208 236 236 235 240 243 242 237 234 231 231 237 248 255 262 269 276 286 296 307 313 313 312 314 316
205 158 134 268 219 190 176 195 193 212 232 161 181 186 194 198 204 213 217 240 238 233 243 247 249 245 235 234 233 237 244 248 254 260 265 267 278 294 302 307 309 309 312 313
134 156 218 216 189 197 199 197 187 93 191 183 196 210 221 231 226 226 236 230 232 247 246 243 243 234 230 230 236 242 247 252 256 260 263 265 277 290 295 303 305 305 308 311
157 216 332 146 204 147 165 245 191 210 195 177 153 151 214 212 207 210 216 238 247 242 237 229 225 226 229 236 242 249 258 262 261 262 262 262 272 281 292 302 302 301 306 310
157 187 205 248 192 152 110 280 210 197 192 157 147 145 241 201 190 210 227 237 241 231 227 224 220 231 242 248 251 265 268 271 267 261 260 261 268 278 290 301 299 300 305 309
179 205 272 216 179 150 136 249 180 203 193 160 178 199 149 168 189 218 246 262 246 229 232 224 246 252 252 256 263 264 266 266 264 261 259 262 268 277 292 299 297 298 302 305
112 170 249 150 115 168 165 140 175 182 192 197 212 183 188 211 236 245 253 261 249 237 230 243 256 258 257 263 265 262 266 266 261 258 259 264 271 278 290 293 295 295 298 302
192 207 149 172 130 163 154 161 168 170 183 201 206 207 218 223 246 249 252 259 256 241 229 249 260 261 258 263 265 262 265 266 261 259 261 267 274 280 288 292 293 293 298 302
104 197 200 196 159 181 172 169 181 196 208 212 214 217 221 240 276 260 267 274 270 246 234 249 261 267 268 265 265 260 260 262 260 259 263 269 275 281 288 290 289 291 294 298
9 351 204 223 214 197 197 206 213 217 222 225 233 235 248 262 265 272 277 269 265 260 246 250 269 270 266 266 265 261 261 263 262 263 267 272 277 282 287 288 285 288 291 294
200 198 178 202 210 210 218 231 236 231 229 238 245 257 259 264 268 274 273 267 257 251 256 263 263 260 262 264 264 260 262 266 266 268 272 276 279 283 283 282 283 287 291 291
178 179 195 213 214 224 236 247 246 239 246 252 256 257 255 261 262 263 268 269 264 264 268 260 263 265 263 263 260 261 267 268 268 270 274 278 282 283 283 276 281 283 285 287
202 209 212 232 243 251 251 254 253 246 250 250 254 251 253 252 261 266 268 266 265 264 260 259 261 262 262 260 261 263 265 267 272 278 280 280 281 279 279 280 281 276 280 282
233 240 257 265 264 258 258 256 250 252 246 255 256 250 248 255 260 261 263 263 261 259 259 258 258 260 262 263 264 266 269 271 273 273 273 275 275 276 276 277 280 285 282 277
257 251 251 249 263 266 262 261 258 260 262 263 254 248 247 250 252 252 249 246 246 250 256 264 264 266 269 272 274 274 275 276 275 273 272 271 272 272 272 274 275 279 282 281
246 249 247 249 260 274 273 272 268 269 271 264 253 243 242 242 240 237 234 234 243 256 266 268 271 275 279 281 282 280 279 276 274 273 271 272 269 268 269 269 272 274 276 274
270 273 276 283 286 285 279 273 269 262 259 256 249 240 236 234 231 226 229 240 253 265 273 281 285 288 289 287 287 286 284 282 278 276 274 270 269 266 266 267 268 270 270 268
268 270 275 276 273 272 273 267 256 250 249 246 238 229 223 219 220 223 230 242 251 265 279 287 293 295 295 294 293 290 288 284 280 277 274 270 267 265 264 263 264 264 266 267
272 272 269 264 257 256 254 246 237 230 223 219 214 207 204 205 213 221 232 252 270 282 288 292 295 299 303 305 304 303 299 294 286 279 275 273 270 267 262 261 261 262 265 269
270 268 263 254 245 234 224 215 207 198 190 184 184 188 190 198 205 216 251 274 283 290 297 302 308 312 315 320 321 319 314 308 300 292 284 280 274 268 262 260 261 264 268 271
322 243 237 225 216 198 179 172 170 170 172 173 171 167 169 187 225 262 289 290 297 302 303 309 318 324 330 332 329 325 319 314 308 300 293 288 280 274 269 267 267 268 271 274
56 74 128 159 163 161 156 155 155 156 159 160 162 168 176 193 255 294 289 285 293 299 304 316 322 322 330 327 322 323 319 314 309 303 300 296 288 282 279 276 275 274 275 276
85 113 134 142 147 146 149 144 143 145 148 149 146 157 210 241 251 274 282 285 294 305 314 316 317 318 325 321 320 318 315 310 306 303 300 297 293 289 285 283 281 280 279 279
102 119 130 135 144 139 138 139 141 147 158 168 180 208 247 271 281 270 276 294 305 311 314 315 317 318 322 320 322 320 318 314 310 307 305 301 297 294 290 287 287 285 283 284
115 126 134 139 145 141 140 145 153 160 176 193 197 217 243 270 284 296 314 320 322 324 323 325 327 329 328 323 324 322 321 319 315 311 307 304 300 297 295 292 289 288 288 289
123 128 129 136 140 139 140 148 156 174 191 199 212 246 281 307 317 318 320 328 333 332 332 334 336 335 331 328 328 324 324 322 317 314 310 307 305 303 300 296 295 294 293 292